Flag for U.S.A. Weather past 2 weeks in Owensboro, Kentucky, U.S.A.

Now
79 °F

Partly sunny.


Feels Like: 80 °F
Forecast: 55 / 70 °F
Wind: 16 mph from Southwest

Location: Owensboro / Daviess

Current Time: Apr 25, 2015 at 3:28:09 PM

Latest Report: Apr 25, 2015 at 2:56 PM


Visibility: 10 mi

Pressure: 29.47 "Hg

Humidity: 56%

Dew point: 62 °F

Location of OwensboroLocation

Historic Weather in Owensboro — Graph

°F

Owensboro temperature yesterday

Maximum temperature yesterday: 66 °F (at 2:56 PM)
Minimum temperature yesterday: 39 °F (at 5:56 AM)
Average temperature yesterday: 54 °F

Past Weeks' High & Low Weather Summary

 TemperatureHumidityPressure
High81 °F (Apr 18, 4:56 PM)100% (Apr 16, 2:56 AM)30.29 "Hg (Apr 16, 2:56 AM)
Low38 °F (Apr 23, 3:56 AM)23% (Apr 11, 2:56 PM)29.44 "Hg (Apr 19, 5:56 PM)
Average60 °F67%29.97 "Hg
* Reported Apr 10 1:56 PM — Apr 25 1:56 PM, Owensboro, Weather by CustomWeather, © 2015

Note: Actual official high and low records may vary slightly from our data, if they occured in-between our weather recording intervals... More about our weather records

Advertising

Owensboro weather history for previous 24 hours

 ConditionsComfort  
Time TempWeatherWind HumidityBarometerVisibility
1:56 PM
Sat, Apr 25
76 °FPartly sunny.15 mph62%29.49 "Hg10 mi
12:56 PM74 °FPartly sunny.14 mph69%29.52 "Hg10 mi
11:56 AM69 °FPartly sunny.18 mph78%29.54 "Hg10 mi
10:56 AM63 °FBroken clouds.13 mph87%29.60 "Hg7 mi
9:56 AM58 °FLight rain. Fog.10 mph93%29.63 "Hg4 mi
8:56 AM56 °FFog.8 mph93%29.66 "Hg5 mi
7:56 AM56 °FOvercast.12 mph90%29.67 "Hg8 mi
6:56 AM56 °FOvercast.9 mph90%29.69 "Hg8 mi
5:56 AM55 °FOvercast.7 mph90%29.69 "Hg10 mi
4:56 AM55 °FLight rain. Overcast.7 mph80%29.70 "Hg8 mi
3:56 AM56 °FMostly cloudy.6 mph72%29.73 "Hg10 mi
2:56 AM57 °FMostly cloudy.10 mph62%29.77 "Hg10 mi
1:56 AM58 °FMostly cloudy.8 mph55%29.78 "Hg10 mi
12:56 AM58 °FMostly cloudy.7 mph51%29.80 "Hg10 mi
11:56 PM
Fri, Apr 24
58 °FMostly cloudy.8 mph49%29.83 "Hg10 mi
10:56 PM57 °FOvercast.8 mph56%29.83 "Hg10 mi
9:56 PM57 °FOvercast.6 mph56%29.87 "Hg10 mi
8:56 PM56 °FOvercast.8 mph60%29.89 "Hg10 mi
7:56 PM59 °FMostly cloudy.6 mph47%29.92 "Hg10 mi
5:56 PM62 °FOvercast.10 mph40%29.94 "Hg10 mi
4:56 PM64 °FOvercast.10 mph33%29.96 "Hg10 mi
3:56 PM65 °FPartly sunny.10 mph33%29.95 "Hg10 mi
Weather by CustomWeather, © 2015

See weather overviewHow to use our weather pages